TimeCST,TemperatureF,Dew PointF,Humidity,Sea Level PressureIn,VisibilityMPH,Wind Direction,Wind SpeedMPH,Gust SpeedMPH,PrecipitationIn,Events,Conditions,WindDirDegrees,DateUTC
12:15 AM,43.0,42.3,97,30.14,2.0,ESE,11.5,17.3,N/A,,Overcast,120,2013-01-27 06:15:00
12:35 AM,43.2,42.4,97,30.14,1.8,ESE,10.4,16.1,N/A,,Overcast,120,2013-01-27 06:35:00
12:55 AM,43.2,42.4,97,30.13,1.2,ESE,11.5,-,N/A,,Overcast,110,2013-01-27 06:55:00
1:15 AM,43.2,42.4,97,30.13,0.8,ESE,11.5,-,N/A,,Overcast,120,2013-01-27 07:15:00
1:35 AM,43.2,42.4,97,30.13,0.5,ESE,10.4,-,N/A,Fog,Fog,120,2013-01-27 07:35:00
1:55 AM,43.2,42.4,97,30.14,0.5,ESE,10.4,16.1,N/A,Fog,Fog,120,2013-01-27 07:55:00
2:15 AM,43.2,42.4,97,30.13,0.5,ESE,9.2,-,N/A,Fog,Fog,110,2013-01-27 08:15:00
2:35 AM,43.2,42.4,97,30.13,0.5,ESE,10.4,-,N/A,Fog,Fog,110,2013-01-27 08:35:00
2:55 AM,43.2,42.4,97,30.13,0.5,ESE,10.4,-,N/A,Fog,Fog,110,2013-01-27 08:55:00
3:15 AM,43.2,42.6,98,30.13,0.5,ESE,9.2,-,N/A,Fog,Fog,120,2013-01-27 09:15:00
3:35 AM,43.2,42.8,99,30.12,0.5,SE,8.1,-,N/A,Fog,Fog,130,2013-01-27 09:35:00
3:55 AM,43.2,42.8,99,30.11,0.5,ESE,10.4,-,N/A,Fog,Fog,120,2013-01-27 09:55:00
4:15 AM,43.3,42.8,98,30.11,0.5,ESE,8.1,-,N/A,Fog,Fog,120,2013-01-27 10:15:00
4:35 AM,43.3,42.8,98,30.10,0.5,ESE,9.2,-,N/A,Fog,Fog,120,2013-01-27 10:35:00
4:55 AM,43.5,42.8,97,30.10,0.5,ESE,9.2,-,N/A,Fog,Fog,120,2013-01-27 10:55:00
5:15 AM,43.7,43.0,97,30.10,0.5,ESE,8.1,-,N/A,Fog,Fog,120,2013-01-27 11:15:00
5:35 AM,43.7,43.0,97,30.10,0.5,ESE,6.9,-,N/A,Fog,Fog,120,2013-01-27 11:35:00
5:55 AM,43.7,43.2,98,30.10,0.5,ESE,6.9,-,N/A,Fog,Fog,120,2013-01-27 11:55:00
6:15 AM,43.7,43.2,98,30.10,0.5,ESE,9.2,-,N/A,Fog,Fog,120,2013-01-27 12:15:00
6:35 AM,44.1,43.7,99,30.10,0.5,SE,8.1,-,N/A,Fog,Fog,130,2013-01-27 12:35:00
6:55 AM,44.1,43.7,99,30.11,0.5,SE,5.8,-,N/A,Fog,Fog,140,2013-01-27 12:55:00
7:15 AM,44.4,43.7,97,30.11,0.5,SE,5.8,-,N/A,Fog,Fog,130,2013-01-27 13:15:00
7:35 AM,44.6,44.1,98,30.11,0.5,SE,6.9,-,N/A,Fog,Fog,130,2013-01-27 13:35:00
7:55 AM,44.8,44.2,98,30.11,0.2,SE,10.4,-,N/A,Fog,Fog,130,2013-01-27 13:55:00
8:15 AM,44.8,44.2,98,30.11,0.2,ESE,6.9,-,N/A,Fog,Fog,120,2013-01-27 14:15:00
8:35 AM,45.3,44.6,97,30.12,0.2,ESE,6.9,-,N/A,Fog,Fog,120,2013-01-27 14:35:00
8:55 AM,45.7,45.3,99,30.10,0.2,SE,9.2,-,N/A,Fog,Fog,130,2013-01-27 14:55:00
9:15 AM,46.6,46.0,98,30.11,0.2,SSE,4.6,18.4,N/A,Fog,Fog,150,2013-01-27 15:15:00
9:35 AM,47.3,46.8,98,30.10,0.2,SE,11.5,-,N/A,Fog,Fog,130,2013-01-27 15:35:00
9:55 AM,48.4,48.0,99,30.11,0.5,SE,9.2,-,N/A,Fog,Fog,130,2013-01-27 15:55:00
10:15 AM,49.1,48.4,97,30.11,0.5,SE,6.9,-,N/A,Fog,Fog,140,2013-01-27 16:15:00
10:35 AM,49.8,49.1,97,30.11,0.8,SSE,9.2,-,N/A,,Overcast,150,2013-01-27 16:35:00
10:55 AM,50.5,50.0,98,30.11,0.8,SSE,9.2,-,N/A,,Overcast,150,2013-01-27 16:55:00
11:15 AM,51.4,50.9,98,30.11,1.2,SE,9.2,-,N/A,,Overcast,130,2013-01-27 17:15:00
11:35 AM,52.2,51.8,99,30.11,1.8,North,-9999.0,-,N/A,,Overcast,0,2013-01-27 17:35:00
11:55 AM,53.1,52.5,98,30.09,1.8,SSE,9.2,-,N/A,,Overcast,150,2013-01-27 17:55:00
12:15 PM,53.6,53.1,98,30.06,2.0,SE,6.9,-,N/A,,Overcast,140,2013-01-27 18:15:00
12:35 PM,54.5,53.8,97,30.05,3.0,SSE,10.4,17.3,N/A,,Overcast,150,2013-01-27 18:35:00
12:55 PM,55.2,54.5,97,30.03,4.0,SSE,8.1,17.3,N/A,,Overcast,160,2013-01-27 18:55:00
1:15 PM,56.1,55.4,97,30.02,4.0,SSE,10.4,-,N/A,,Overcast,150,2013-01-27 19:15:00
1:35 PM,57.2,55.9,96,30.01,4.0,SSE,8.1,-,N/A,,Overcast,150,2013-01-27 19:35:00
1:55 PM,58.1,56.3,94,30.00,5.0,SSE,5.8,-,N/A,,Overcast,160,2013-01-27 19:55:00
2:15 PM,58.1,55.9,93,30.00,5.0,North,-9999.0,-,N/A,,Overcast,0,2013-01-27 20:15:00
2:35 PM,60.6,57.4,89,29.98,7.0,SSE,5.8,-,N/A,,Overcast,150,2013-01-27 20:35:00
2:55 PM,61.5,57.2,86,29.97,10.0,SSE,9.2,-,N/A,,Overcast,150,2013-01-27 20:55:00
3:15 PM,62.8,57.4,82,29.97,10.0,SSE,9.2,-,N/A,,Overcast,160,2013-01-27 21:15:00
3:35 PM,61.7,57.2,85,29.97,10.0,SSE,9.2,-,N/A,,Overcast,160,2013-01-27 21:35:00
3:55 PM,61.7,57.2,85,29.97,10.0,SSE,6.9,-,N/A,,Overcast,150,2013-01-27 21:55:00
4:15 PM,61.7,57.2,85,29.97,10.0,SSE,6.9,-,N/A,,Overcast,160,2013-01-27 22:15:00
4:35 PM,61.9,57.2,85,29.96,10.0,SE,6.9,-,N/A,,Mostly Cloudy,140,2013-01-27 22:35:00
4:55 PM,63.3,57.4,81,29.96,10.0,SE,6.9,-,N/A,,Scattered Clouds,130,2013-01-27 22:55:00
5:15 PM,61.9,57.2,85,29.96,10.0,ESE,6.9,-,N/A,,Mostly Cloudy,110,2013-01-27 23:15:00
5:35 PM,60.3,56.3,87,29.96,10.0,ESE,11.5,18.4,N/A,,Mostly Cloudy,110,2013-01-27 23:35:00
5:55 PM,58.8,55.6,89,29.97,7.0,ESE,10.4,16.1,N/A,,Mostly Cloudy,110,2013-01-27 23:55:00
6:15 PM,58.5,55.8,91,29.96,7.0,ESE,8.1,-,N/A,,Mostly Cloudy,120,2013-01-28 00:15:00
6:35 PM,59.0,56.3,91,29.97,7.0,ESE,4.6,17.3,N/A,,Overcast,120,2013-01-28 00:35:00
6:55 PM,58.1,55.4,91,29.97,7.0,ESE,4.6,-,N/A,,Overcast,120,2013-01-28 00:55:00
7:15 PM,58.1,55.4,91,29.97,7.0,SE,4.6,-,N/A,,Overcast,130,2013-01-28 01:15:00
7:35 PM,58.1,55.2,90,29.97,7.0,SE,6.9,-,N/A,,Overcast,140,2013-01-28 01:35:00
7:55 PM,58.5,55.6,90,29.98,7.0,SE,3.5,-,N/A,,Overcast,140,2013-01-28 01:55:00
8:15 PM,59.0,55.9,90,29.97,10.0,SSE,6.9,-,N/A,,Overcast,160,2013-01-28 02:15:00
8:35 PM,59.7,56.3,88,29.97,10.0,SSE,5.8,-,N/A,,Overcast,160,2013-01-28 02:35:00
8:55 PM,60.4,56.7,87,29.97,10.0,SSE,5.8,-,N/A,,Overcast,160,2013-01-28 02:55:00
9:15 PM,61.5,57.2,86,29.96,10.0,SSE,5.8,-,N/A,,Overcast,160,2013-01-28 03:15:00
9:35 PM,61.9,57.2,85,29.96,10.0,SSE,4.6,-,N/A,,Overcast,160,2013-01-28 03:35:00
9:55 PM,62.8,57.6,83,29.96,10.0,SSE,6.9,-,N/A,,Overcast,160,2013-01-28 03:55:00
10:15 PM,63.0,57.6,82,29.96,10.0,SSE,5.8,-,N/A,,Overcast,160,2013-01-28 04:15:00
10:35 PM,63.1,57.7,83,29.97,10.0,SSE,5.8,-,N/A,,Overcast,150,2013-01-28 04:35:00
10:55 PM,65.1,58.8,80,29.97,10.0,South,9.2,-,N/A,,Overcast,170,2013-01-28 04:55:00
11:15 PM,65.5,59.0,80,29.98,10.0,South,10.4,-,N/A,,Overcast,170,2013-01-28 05:15:00
11:35 PM,64.9,59.0,81,29.98,10.0,South,10.4,16.1,N/A,,Overcast,170,2013-01-28 05:35:00
11:55 PM,64.9,59.2,82,29.98,10.0,South,8.1,-,N/A,,Overcast,180,2013-01-28 05:55:00